Location: Moscow
(38.8570°N, 84.2291°W)
Time: 19:01:45
(UTC+00:00)

NANOSAT C BR1 - Pass Details

Date: 07 March 2026
Orbit: 474 x 480 km, 98.1° (Epoch: 21 April)

Event Time Altitude Azimuth Distance (km) Brightness Sun altitude
Rises 00:57:49 0° 201° (SSW) 2,546 ? -16.9°
Reaches altitude 10° 01:00:24 10° 221° (SW) 1,671 ? -17.4°
Maximum altitude 01:02:52 18° 265° (W) 1,277 ? -17.9°
Drops below altitude 10° 01:05:21 10° 309° (NW) 1,680 ? -18.4°
Sets 01:07:58 0° 329° (NNW) 2,565 ? -18.9°
